BAW5E EGLL-KMIA

Flight info

Callsign BAW5E
Flight time N/A
Altitude 34000
Route CPT DCT DIDZA L9 OKSAW DCT BIBPE DCT BUCGO DCT FELCA DCT OFSOX DCT BANBA DCT ADARA/M083F360 DCT 5130N02000W 5030N03000W 4930N04000W 4830N05000W DCT MUSAK N278C GAYBL DCT 41N065W/M082F380 DCT DRYED M201 VIRST Y494 WHOOS/N0469F380 Y494 WEAKK Y493 BAHAA AR15 HIBAC TARPN3
Aircraft A388/J-SADE2E3FGHIJ3J4J5M1RWXY/LB1D1

Departure

Time N/A
Airport London Heathrow Airport (EGLL)

Arrival

Time 2026-04-30 07:59
Airport Miami International Airport (KMIA)
Time Latitude Longitude Altitude Speed Heading
2026-04-30 07:49 26.11273 -80.01173 8273 ft 291 kts 174°
2026-04-30 07:49 26.09278 -80.00905 7972 ft 287 kts 174°
2026-04-30 07:49 26.07329 -80.00643 7686 ft 284 kts 173°
2026-04-30 07:50 26.05377 -80.00381 7395 ft 281 kts 173°
2026-04-30 07:50 26.03443 -80.00120 7105 ft 278 kts 173°
2026-04-30 07:50 26.01535 -79.99864 6817 ft 275 kts 173°
2026-04-30 07:50 25.99634 -79.99608 6515 ft 274 kts 173°
2026-04-30 07:51 25.97740 -79.99352 6226 ft 274 kts 173°
2026-04-30 07:51 25.95849 -79.99097 5888 ft 272 kts 172°
2026-04-30 07:51 25.93976 -79.98845 5715 ft 268 kts 172°
2026-04-30 07:51 25.92185 -79.98604 5612 ft 257 kts 172°
2026-04-30 07:52 25.90418 -79.98367 5535 ft 247 kts 172°
2026-04-30 07:52 25.88760 -79.98144 5445 ft 243 kts 172°
2026-04-30 07:52 25.87085 -79.97918 5285 ft 243 kts 173°
2026-04-30 07:52 25.85417 -79.97694 5145 ft 240 kts 172°
2026-04-30 07:53 25.83749 -79.97586 4994 ft 240 kts 188°
2026-04-30 07:53 25.82271 -79.98336 4868 ft 234 kts 225°
2026-04-30 07:53 25.81471 -79.99866 4656 ft 232 kts 254°
2026-04-30 07:53 25.81216 -80.01632 4375 ft 232 kts 265°
2026-04-30 07:54 25.81163 -80.03413 4067 ft 230 kts 267°
2026-04-30 07:54 25.81090 -80.05185 3755 ft 230 kts 266°
2026-04-30 07:54 25.81021 -80.06931 3467 ft 229 kts 266°
2026-04-30 07:54 25.80947 -80.08704 3170 ft 228 kts 266°
2026-04-30 07:55 25.80876 -80.10457 2886 ft 222 kts 266°
2026-04-30 07:55 25.80812 -80.12054 2615 ft 192 kts 266°
2026-04-30 07:55 25.80754 -80.13465 2366 ft 176 kts 266°
2026-04-30 07:55 25.80698 -80.14802 2139 ft 172 kts 266°
2026-04-30 07:56 25.80645 -80.16109 1939 ft 171 kts 266°
2026-04-30 07:56 25.80593 -80.17380 1715 ft 154 kts 267°
2026-04-30 07:56 25.80546 -80.18514 1516 ft 145 kts 267°
2026-04-30 07:56 25.80501 -80.19626 1314 ft 144 kts 267°
2026-04-30 07:57 25.80456 -80.20734 1128 ft 143 kts 267°
2026-04-30 07:57 25.80410 -80.21836 941 ft 143 kts 267°
2026-04-30 07:57 25.80378 -80.22939 760 ft 143 kts 269°
2026-04-30 07:57 25.80346 -80.24047 590 ft 144 kts 267°
2026-04-30 07:58 25.80288 -80.25156 397 ft 145 kts 266°
2026-04-30 07:58 25.80235 -80.26265 208 ft 144 kts 267°
2026-04-30 07:58 25.80184 -80.27375 24 ft 142 kts 267°
2026-04-30 07:58 25.80148 -80.28298 22 ft 98 kts 266°
2026-04-30 07:59 25.80124 -80.28902 26 ft 45 kts 265°
2026-04-30 07:59 25.80092 -80.29033 25 ft 19 kts 242°
2026-04-30 07:59 25.80008 -80.29104 25 ft 15 kts 168°
2026-04-30 08:00 25.79866 -80.29099 24 ft 13 kts 178°
2026-04-30 08:00 25.79764 -80.29095 22 ft 16 kts 177°
2026-04-30 08:00 25.79640 -80.29087 22 ft 19 kts 176°
2026-04-30 08:00 25.79541 -80.29031 24 ft 17 kts 129°
2026-04-30 08:01 25.79474 -80.28912 21 ft 19 kts 119°
2026-04-30 08:01 25.79405 -80.28773 21 ft 21 kts 118°
2026-04-30 08:01 25.79347 -80.28660 22 ft 14 kts 120°
2026-04-30 08:01 25.79296 -80.28557 22 ft 15 kts 98°
2026-04-30 08:02 25.79329 -80.28404 22 ft 2 kts 22°
2026-04-30 08:02 25.79369 -80.28387 20 ft 9 kts 14°
2026-04-30 08:03 25.79400 -80.28379 22 ft 0 kts 12°